Location: Champaign/Urbana Astronomical Society Observatory
(40.0333°N, 88.2833°W)
Time: 09:58:56
(UTC-05:00)

TIGRISAT - Visible Passes

Search period start: 19 May 2019 00:00
Search period end: 29 May 2019 00:00
Orbit: 606 x 689 km, 97.8° (Epoch: 18 May)

Date Brightness Start Highest point End Pass type
(mag) Time Alt. Az. Time Alt. Az. Time Alt. Az.
19 May ? 21:58:15 10° NNE 22:02:40 83° ESE 22:04:50 29° S visible
20 May ? 20:49:14 10° ENE 20:51:21 13° E 20:53:12 11° ESE visible
20 May ? 22:24:06 10° N 22:28:21 50° WNW 22:30:56 21° SW visible
21 May ? 21:13:42 10° NE 21:17:19 25° E 21:19:17 18° SE visible
21 May ? 22:50:17 10° NNW 22:53:55 26° WNW 22:57:02 12° WSW visible
22 May ? 21:38:57 10° NNE 21:43:11 49° E 21:45:23 25° SSE visible
22 May ? 23:17:01 10° NNW 23:19:25 15° WNW 23:21:48 10° W visible
23 May ? 22:04:35 10° N 22:08:57 83° WNW 22:11:28 24° SSW visible
24 May ? 20:55:06 10° NE 20:57:43 16° E 20:59:50 12° SE visible
24 May ? 22:30:31 10° N 22:34:37 42° WNW 22:37:34 17° SW visible
25 May ? 21:19:51 10° NE 21:23:39 30° E 21:25:55 18° SE visible
25 May ? 22:56:48 10° NNW 23:00:10 23° WNW 23:03:29 10° WSW visible
26 May ? 21:45:13 10° NNE 21:49:29 59° E 21:52:01 23° S visible
26 May ? 23:23:50 10° NW 23:25:38 12° WNW 23:27:24 10° W visible
27 May ? 22:10:56 10° N 22:15:14 70° WNW 22:18:06 20° SSW visible
28 May ? 21:01:04 10° NE 21:04:04 18° E 21:06:27 12° SE visible
28 May ? 22:36:56 10° N 22:40:51 35° WNW 22:44:12 13° SW visible
